Regional Weather Roundup
Issued by NWS Kansas City/Pleasant Hill, MO

Home | Current Version | Previous Version | Text Only | Print | Product List | Glossary On
Versions: 1 2 3 4 5 6 7 8 9 10 11 12 13 14 15 16 17 18 19 20 21 22 23 24 25 26 27 28 29 30 31 32 33 34 35 36 37 38 39 40 41 42 43 44 45 46 47 48 49 50
000
ASUS43 KEAX 190511
RWREAX

WEATHER ROUNDUP FOR EASTERN KANSAS AND NORTHWEST MISSOURI
NATIONAL WEATHER SERVICE KANSAS CITY/PLEASANT HILL MO
1200 AM CDT SUN APR 19 2015

KSZ040-057-103>105-MOZ028-029-037-043-190600-
...KANSAS CITY METROPOLITAN AREA...

CITY           SKY/WX    TMP DP  RH WIND       PRES   REMARKS
K.C. INTL      CLOUDY    57  57 100 SE6       29.81F
K.C. DOWNTOWN  CLOUDY    61  58  90 E3        29.80F
LEES SUMMIT    CLOUDY    58  57  97 CALM      29.81F
OLATHE - IXD   CLOUDY    59  58  96 SE3       29.81F
OLATHE - OJC   CLOUDY    59  58  96 CALM      29.80F
LAWRENCE       CLOUDY    59  56  89 W9        29.82S

$$

MOZ001>008-011>017-020>025-030>033-038>040-044>046-053-054-190600-
...NORTHERN AND CENTRAL MISSOURI...

CITY           SKY/WX    TMP DP  RH WIND       PRES   REMARKS
ST. JOSEPH     FOG       52  52 100 CALM      29.82S VSB 1/4
MOSBY          CLOUDY    57  57 100 CALM      29.82R
WARRENSBURG    CLOUDY    59  57  94 E5        29.81F
WHITEMAN AFB   CLOUDY    59  59 100 SE3       29.80F
CLINTON        MOCLDY    61  61 100 E3        29.81F
SEDALIA        FOG       60  58  92 S3        29.82F VSB 1
WARSAW         NOT AVBL
MARSHALL       FOG       59  59 100 CALM      29.82F VSB 1/2
CHILLICOTHE      N/A     58  57  97 CALM      29.83F
KIRKSVILLE     CLOUDY    60  58  92 E7        29.84F

$$

MOZ041-047>049-056>058-063>065-088>090-097-190600-
...EASTERN AND SOUTHERN MISSOURI...

CITY           SKY/WX    TMP DP  RH WIND       PRES   REMARKS
ST. LOUIS INTL MOCLDY    65  56  72 E5        29.83F
SPIRIT OF STL  MOCLDY    64  57  78 CALM      29.81F
COLUMBIA       CLEAR     58  54  86 E5        29.81F
JEFFERSON CITY CLEAR     60  56  86 E3        29.80F
MEXICO         CLOUDY    63  59  88 CALM      29.82F
HANNIBAL       CLOUDY    61  57  88 CALM      29.84F
ROLLA          PTCLDY    58  55  90 E7        29.80F
LEBANON        PTCLDY    59  57  94 CALM      29.83S
OSAGE BEACH    PTCLDY    57  55  94 CALM      29.81F
SPRINGFIELD    CLEAR     55  52  89 SE3       29.81F
BRANSON        MOCLDY    57  57 100 CALM      29.81F
NEVADA         PTCLDY    57  57 100 E5        29.80S
JOPLIN         PTCLDY    60  57  89 E8        29.77F
WEST PLAINS    PTCLDY    58  54  86 CALM      29.82F

$$

IAZ060-094-KSZ022-034>040-054-083-096-NEZ052-066-093-190600-
...KANSAS...SOUTHEAST NEBRASKA AND IOWA...

CITY           SKY/WX    TMP DP  RH WIND       PRES   REMARKS
TOPEKA         CLOUDY    57  52  83 W7        29.83S
MANHATTAN      LGT RAIN  55  54  96 S3        29.82F FOG
EMPORIA        LGT RAIN  54  51  90 N8        29.81F
CHANUTE        CLOUDY    60  57  89 NW13      29.80R
WICHITA        TSTM      55  53  93 SW6       29.86R FOG
OMAHA          MOCLDY    56  55  97 CALM      29.81F
LINCOLN        CLOUDY    59  51  75 SW5       29.80F
FALLS CITY     CLOUDY    57  55  93 S6        29.80F
LAMONI         FOG       59  58  96 S6        29.82S VSB 1/4
DES MOINES     CLOUDY    60  57  89 SE9       29.83R

$$




USA.gov is the U.S. government's official web portal to all federal, state and local government web resources and services.